Skip Page Navigation
NASA JPL Caltech
NASA Logo - Jet Propulsion Laboratory + View the NASA Portal
+ Center for Near-Earth Object Studies
JPL Home Earth Solar System Stars & Galaxies Technology
JPL Solar System Dynamics
BODIES ORBITS EPHEMERIDES TOOLS PHYSICAL DATA DISCOVERY FAQ SITE MAP
IMPORTANT: The SSD Announcement email list is now available. Major changes are coming in the near future, including possible hostname and/or URL changes. To be notified of such changes, subscribe to this email list.

Please visit this page for more details.


JPL Small-Body Database Browser
Search: [ help ]  
14433 (1992 EE8)
Classification: Main-belt Asteroid          SPK-ID: 2014433
Ephemeris | Orbit Diagram | Orbital Elements | Mission Design | Physical Parameters | Discovery Circumstances | Close-Approach Data ]

[ show orbit diagram ]
Orbital Elements at Epoch 2459000.5 (2020-May-31.0) TDB
Reference: JPL 18 (heliocentric ecliptic J2000)
 Element Value Uncertainty (1-sigma)   Units 
e .1234284217652756 3.8696e-08  
a 2.426064693023343 1.0664e-08 au
q 2.126619356863015 9.7207e-08 au
i 6.485053668375468 5.8066e-06 deg
node 161.5090555557171 3.7106e-05 deg
peri 135.110251991017 4.4767e-05 deg
M 42.23091597408166 2.4045e-05 deg
tp 2458838.587643514325
(2019-Dec-21.08764351)
9.226e-05 TDB
period 1380.231685493541
3.78
9.1e-06
2.491e-08
d
yr
n .2608257756894429 1.7197e-09 deg/d
Q 2.725510029183673 1.198e-08 au
  Orbit Determination Parameters
   # obs. used (total)      1243  
   data-arc span      13379 days (36.63 yr)  
   first obs. used      1982-09-24  
   last obs. used      2019-05-12  
   planetary ephem.      DE431  
   SB-pert. ephem.      SB431-N16  
   condition code      0  
   norm. resid. RMS      .54615  
   source      ORB  
   producer      Otto Matic  
   solution date      2019-May-30 02:14:39  

Additional Information
 Earth MOID = 1.1168 au 
 Jupiter MOID = 2.47286 au 
 T_jup = 3.491 
[ show covariance matrix ]

Ephemeris | Orbit Diagram | Orbital Elements | Mission Design | Physical Parameters | Discovery Circumstances | Close-Approach Data ]

Physical Parameter Table
Parameter Symbol Value Units Sigma Reference Notes
absolute magnitude H 14.9   n/a MPO473962  

14433 (1992 EE8)          Discovered 1992-Mar-02 by UESAC at La Silla
Reference: 20000418/Numbers.arcLast Updated: 2004-04-19

[ show close-approach data ]
Alternate Designations
 1992 EE8 = 1982 SS3 
Ephemeris | Orbit Diagram | Orbital Elements | Mission Design | Physical Parameters | Discovery Circumstances | Close-Approach Data ]
ABOUT SSD CREDITS/AWARDS PRIVACY/COPYRIGHT GLOSSARY LINKS
FirstGov 2020-Apr-07 08:15 UT
(server date/time)  
NASA Home Page
Site Manager:   Ryan S. Park
Webmaster  Alan B. Chamberlin